Accueil
METAR-TAF:

METAR-TAF

Aéroports :

Emmen, Suisse

latitude: 47-05-32N, longitude: 8-18-16E, altitude: 426 m

Observation

Le bulletin a été fait il y a 1 heure et 1 minutes, à 23:50 UTC
Vent 5 kt de ouest/sud-ouest
Température 14°C
Humidité 88%
Pression 1015 hPa
Visibilité 10 km ou plus

METAR: LSME 262350Z AUTO 24005KT 9999NDV NCD 14/12 Q1015 RMK

Heure: 02:51 (00:51 UTC)


TAF: absent

Observations et prévisions météorologiques de plus de 4000 aéroports (messages METAR et TAF).

Les stations disponibles sont représentées par des disques jaunes et rouges sur la carte.

Passer la souris dessus pour voir le nom de la station.

Cliquer dessus pour voir les observations et prévisions météorologiques.

Pour changer de carte: cliquez sur les boutons verts avec une croix noire pour zoomer, sur le bouton vert avec un tiret pour effectuer un zoom arrière, ou sur les flèches vertes pour les cartes adjacentes.


METAR-TAF: